Lincoln Laboratory Near-Earth Asteroid Research project
軌道要素
The following orbital elements are taken from MPC 61702:
Epoch 2005 Aug. 18.0 TT = JDT 2453600.5
T 2005 Aug. 25.5219 TT MPC
q 6.408405 (2000.0) P Q
z -0.000699 Peri. 44.6910 +0.2122991 +0.1582194
+/-0.000002 Node 87.7275 +0.3750529 -0.9244241
e 1.004479 Incl. 105.1883 +0.9023660 +0.3469968
From 152 observations 2005 Aug. 27-2007 Sept. 12, mean residual 0".6.